Location: Staunton
(38.1490°N, 79.0720°W)
Time: 21:37:09
(UTC-04:00)

ISS - Pass Details

Date: 20 May 2018
Orbit: 402 x 407 km, 51.6° (Epoch: 23 May)

Event Time Altitude Azimuth Distance (km) Brightness Sun altitude
Rises 23:16:51 0° 264° (W) 2,311 0.3 -25.6°
Reaches altitude 10° 23:19:15 10° 281° (W) 1,454 -0.5 -25.9°
Maximum altitude 23:21:49 21° 333° (NNW) 969 -1.2 -26.1°
Drops below altitude 10° 23:24:23 10° 25° (NNE) 1,457 -0.6 -26.4°
Sets 23:26:48 0° 42° (NE) 2,318 0.3 -26.6°
